| time (UTC) | temp F | wind direction | speed MPH | gust MPH | rain 1hr in | rain 24hr in | rain mn in | humidity % | barometer mb |
| 20260510213715 | 58 | 130 | 2.0 | 2.0 | 0.00 | 0.25 | 0.00 | 95 | 1010.8 |
| 20260510213218 | 57 | 130 | 2.0 | 2.0 | 0.00 | 0.25 | 0.00 | 94 | 1010.8 |
| 20260510212715 | 57 | 130 | 1.0 | 2.0 | 0.00 | 0.25 | 0.00 | 94 | 1010.8 |
| 20260510212212 | 57 | 130 | 0.0 | 1.0 | 0.00 | 0.25 | 0.00 | 94 | 1010.8 |
| 20260510211712 | 57 | 130 | 0.0 | 1.0 | 0.00 | 0.25 | 0.00 | 94 | 1010.7 |
| 20260510211212 | 57 | 130 | 0.0 | 0.0 | 0.00 | 0.25 | 0.00 | 94 | 1010.7 |
| 20260510210712 | 57 | 130 | 0.0 | 0.0 | 0.00 | 0.25 | 0.00 | 94 | 1010.6 |
| 20260510210212 | 57 | 130 | 0.0 | 2.0 | 0.00 | 0.25 | 0.00 | 94 | 1010.5 |
| 20260510205712 | 58 | 130 | 1.0 | 2.0 | 0.00 | 0.25 | 0.00 | 94 | 1010.5 |
| 20260510205215 | 58 | 130 | 1.0 | 2.0 | 0.00 | 0.25 | 0.00 | 93 | 1010.5 |
| 20260510204712 | 58 | 130 | 1.0 | 1.0 | 0.00 | 0.25 | 0.00 | 93 | 1010.6 |
| 20260510204218 | 58 | 130 | 0.0 | 1.0 | 0.00 | 0.25 | 0.00 | 93 | 1010.6 |
| 20260510203715 | 58 | 130 | 0.0 | 0.0 | 0.00 | 0.25 | 0.00 | 93 | 1010.6 |
| 20260510203215 | 58 | 130 | 0.0 | 1.0 | 0.00 | 0.25 | 0.00 | 93 | 1010.5 |
| 20260510202717 | 58 | 130 | 0.0 | 0.0 | 0.00 | 0.25 | 0.00 | 93 | 1010.5 |
| 20260510202212 | 58 | 130 | 0.0 | 1.0 | 0.00 | 0.25 | 0.00 | 93 | 1010.5 |
| 20260510201714 | 59 | 130 | 1.0 | 3.0 | 0.00 | 0.25 | 0.00 | 93 | 1010.6 |
| 20260510201212 | 59 | 130 | 1.0 | 2.0 | 0.00 | 0.25 | 0.00 | 93 | 1010.6 |
| 20260510200713 | 59 | 130 | 0.0 | 1.0 | 0.00 | 0.25 | 0.00 | 92 | 1010.7 |
| 20260510200221 | 59 | 130 | 0.0 | 0.0 | 0.00 | 0.25 | 0.00 | 92 | 1010.5 |
| 20260510195715 | 59 | 130 | 0.0 | 1.0 | 0.00 | 0.25 | 0.00 | 92 | 1010.6 |
| 20260510195218 | 59 | 130 | 0.0 | 2.0 | 0.00 | 0.25 | 0.00 | 92 | 1010.6 |
| 20260510194712 | 59 | 130 | 1.0 | 2.0 | 0.00 | 0.25 | 0.00 | 92 | 1010.5 |
| 20260510194212 | 60 | 130 | 0.0 | 1.0 | 0.00 | 0.25 | 0.00 | 92 | 1010.5 |
| 20260510193712 | 60 | 130 | 0.0 | 1.0 | 0.00 | 0.25 | 0.00 | 92 | 1010.5 |
| 20260510193212 | 59 | 130 | 0.0 | 1.0 | 0.00 | 0.25 | 0.00 | 92 | 1010.4 |
| 20260510192715 | 59 | 130 | 0.0 | 1.0 | 0.00 | 0.25 | 0.00 | 92 | 1010.3 |
| 20260510192212 | 59 | 130 | 0.0 | 0.0 | 0.00 | 0.25 | 0.00 | 92 | 1010.3 |
| 20260510191712 | 59 | 130 | 0.0 | 1.0 | 0.00 | 0.25 | 0.00 | 92 | 1010.3 |
| 20260510191218 | 59 | 130 | 0.0 | 1.0 | 0.00 | 0.25 | 0.00 | 91 | 1010.2 |
| 20260510190712 | 59 | 130 | 1.0 | 2.0 | 0.00 | 0.25 | 0.00 | 91 | 1010.2 |
| 20260510190215 | 59 | 175 | 2.0 | 2.0 | 0.00 | 0.25 | 0.00 | 91 | 1010.1 |
| 20260510185715 | 59 | 175 | 0.0 | 1.0 | 0.00 | 0.25 | 0.00 | 91 | 1010.0 |
| 20260510185212 | 59 | 175 | 0.0 | 1.0 | 0.00 | 0.25 | 0.00 | 90 | 1009.9 |
| 20260510184711 | 60 | 175 | 0.0 | 1.0 | 0.00 | 0.25 | 0.00 | 90 | 1009.7 |
| 20260510184220 | 60 | 166 | 1.0 | 2.0 | 0.00 | 0.25 | 0.00 | 90 | 1009.7 |
| 20260510183713 | 60 | 108 | 1.0 | 3.0 | 0.00 | 0.25 | 0.00 | 90 | 1009.7 |
| 20260510183212 | 60 | 109 | 1.0 | 3.0 | 0.00 | 0.25 | 0.00 | 89 | 1009.6 |
| 20260510182712 | 60 | 103 | 2.0 | 3.0 | 0.00 | 0.25 | 0.00 | 89 | 1009.6 |
| 20260510182218 | 61 | 103 | 1.0 | 3.0 | 0.00 | 0.25 | 0.00 | 88 | 1009.5 |
| 20260510181712 | 61 | 94 | 2.0 | 3.0 | 0.00 | 0.25 | 0.00 | 88 | 1009.5 |
| 20260510181212 | 62 | 126 | 2.0 | 3.0 | 0.00 | 0.25 | 0.00 | 88 | 1009.4 |
| 20260510180712 | 62 | 150 | 2.0 | 3.0 | 0.00 | 0.25 | 0.00 | 87 | 1009.4 |
| 20260510180215 | 63 | 146 | 3.0 | 4.0 | 0.00 | 0.25 | 0.00 | 85 | 1009.4 |
| 20260510175712 | 63 | 165 | 2.0 | 4.0 | 0.00 | 0.25 | 0.00 | 84 | 1009.2 |
| 20260510175215 | 64 | 146 | 0.0 | 1.0 | 0.00 | 0.25 | 0.00 | 84 | 1009.2 |
| 20260510174714 | 64 | 146 | 0.0 | 1.0 | 0.00 | 0.25 | 0.00 | 83 | 1009.0 |
| 20260510174214 | 64 | 146 | 0.0 | 0.0 | 0.00 | 0.25 | 0.00 | 83 | 1009.0 |
| 20260510173715 | 64 | 146 | 0.0 | 0.0 | 0.00 | 0.25 | 0.00 | 82 | 1009.1 |
| 20260510173212 | 64 | 146 | 0.0 | 1.0 | 0.00 | 0.25 | 0.00 | 82 | 1009.1 |
| 20260510172711 | 64 | 146 | 0.0 | 1.0 | 0.00 | 0.25 | 0.00 | 82 | 1009.2 |
| 20260510172217 | 64 | 146 | 1.0 | 3.0 | 0.00 | 0.25 | 0.00 | 81 | 1009.2 |
| 20260510171712 | 64 | 129 | 3.0 | 3.0 | 0.00 | 0.25 | 0.00 | 81 | 1009.1 |
| 20260510171212 | 64 | 84 | 1.0 | 2.0 | 0.00 | 0.25 | 0.00 | 80 | 1009.2 |
| 20260510170715 | 64 | 172 | 0.0 | 1.0 | 0.00 | 0.25 | 0.00 | 80 | 1009.3 |
| 20260510170212 | 65 | 255 | 0.0 | 1.0 | 0.00 | 0.25 | 0.00 | 81 | 1009.3 |
| 20260510165718 | 64 | 255 | 0.0 | 1.0 | 0.00 | 0.25 | 0.00 | 83 | 1009.4 |
| 20260510165212 | 64 | 255 | 0.0 | 0.0 | 0.00 | 0.25 | 0.00 | 83 | 1009.4 |
| 20260510164721 | 64 | 255 | 0.0 | 0.0 | 0.00 | 0.25 | 0.00 | 83 | 1009.4 |
| 20260510164218 | 64 | 255 | 0.0 | 1.0 | 0.00 | 0.25 | 0.00 | 83 | 1009.4 |
| 20260510163714 | 64 | 256 | 0.0 | 1.0 | 0.00 | 0.25 | 0.00 | 83 | 1009.4 |
| 20260510163215 | 64 | 286 | 0.0 | 3.0 | 0.00 | 0.25 | 0.00 | 83 | 1009.4 |
| 20260510162715 | 65 | 258 | 2.0 | 6.0 | 0.00 | 0.25 | 0.00 | 81 | 1009.4 |
| 20260510162218 | 65 | 244 | 4.0 | 4.0 | 0.00 | 0.25 | 0.00 | 80 | 1009.4 |
| 20260510161718 | 66 | 261 | 2.0 | 4.0 | 0.00 | 0.25 | 0.00 | 79 | 1009.5 |
| 20260510161212 | 66 | 259 | 3.0 | 6.0 | 0.00 | 0.25 | 0.00 | 78 | 1009.4 |
| 20260510160712 | 66 | 304 | 4.0 | 6.0 | 0.00 | 0.25 | 0.00 | 78 | 1009.5 |
| 20260510160215 | 66 | 246 | 2.0 | 8.0 | 0.00 | 0.25 | 0.00 | 78 | 1009.5 |
| 20260510155717 | 66 | 229 | 2.0 | 5.0 | 0.00 | 0.25 | 0.00 | 80 | 1009.5 |
| 20260510155223 | 66 | 196 | 1.0 | 3.0 | 0.00 | 0.25 | 0.00 | 81 | 1009.7 |
| 20260510154715 | 66 | 232 | 2.0 | 2.0 | 0.00 | 0.25 | 0.00 | 81 | 1009.7 |
| 20260510154214 | 66 | 162 | 1.0 | 3.0 | 0.00 | 0.25 | 0.00 | 82 | 1009.8 |
| 20260510153712 | 65 | 264 | 1.0 | 5.0 | 0.00 | 0.25 | 0.00 | 82 | 1009.8 |
| 20260510153215 | 65 | 242 | 1.0 | 4.0 | 0.00 | 0.25 | 0.00 | 79 | 1009.8 |
| 20260510152711 | 65 | 250 | 0.0 | 4.0 | 0.00 | 0.25 | 0.00 | 81 | 1009.9 |
| 20260510152212 | 66 | 306 | 4.0 | 5.0 | 0.00 | 0.25 | 0.00 | 84 | 1009.8 |
| 20260510151712 | 65 | 273 | 1.0 | 6.0 | 0.00 | 0.25 | 0.00 | 84 | 1009.8 |
| 20260510151213 | 65 | 285 | 3.0 | 4.0 | 0.00 | 0.25 | 0.00 | 87 | 1009.9 |
| 20260510150718 | 64 | 166 | 1.0 | 4.0 | 0.00 | 0.25 | 0.00 | 86 | 1010.0 |
| 20260510150215 | 64 | 252 | 0.0 | 5.0 | 0.00 | 0.25 | 0.00 | 88 | 1010.1 |
| 20260510145711 | 63 | 211 | 2.0 | 6.0 | 0.00 | 0.25 | 0.00 | 89 | 1010.2 |
| 20260510145218 | 63 | 274 | 4.0 | 5.0 | 0.00 | 0.25 | 0.00 | 89 | 1010.2 |
| 20260510144715 | 63 | 297 | 0.0 | 3.0 | 0.00 | 0.25 | 0.00 | 91 | 1010.3 |
| 20260510144212 | 63 | 158 | 1.0 | 1.0 | 0.00 | 0.25 | 0.00 | 92 | 1010.2 |
| 20260510143715 | 62 | 169 | 2.0 | 3.0 | 0.00 | 0.25 | 0.00 | 91 | 1010.3 |
| 20260510143212 | 62 | 223 | 0.0 | 5.0 | 0.00 | 0.25 | 0.00 | 92 | 1010.3 |
| 20260510142712 | 62 | 175 | 1.0 | 6.0 | 0.00 | 0.25 | 0.00 | 92 | 1010.4 |
| 20260510142212 | 62 | 273 | 3.0 | 5.0 | 0.00 | 0.25 | 0.00 | 94 | 1010.5 |
| 20260510141712 | 61 | 213 | 0.0 | 3.0 | 0.00 | 0.25 | 0.00 | 93 | 1010.5 |
| 20260510141218 | 61 | 171 | 1.0 | 3.0 | 0.00 | 0.25 | 0.00 | 93 | 1010.5 |
| 20260510140716 | 62 | 213 | 0.0 | 5.0 | 0.00 | 0.25 | 0.00 | 95 | 1010.6 |
| 20260510140211 | 61 | 201 | 3.0 | 4.0 | 0.00 | 0.25 | 0.00 | 95 | 1010.6 |
| 20260510135715 | 61 | 209 | 1.0 | 5.0 | 0.00 | 0.25 | 0.00 | 94 | 1010.6 |
| 20260510135211 | 61 | 200 | 1.0 | 3.0 | 0.00 | 0.25 | 0.00 | 95 | 1010.6 |
| 20260510134715 | 60 | 171 | 5.0 | 6.0 | 0.00 | 0.25 | 0.00 | 94 | 1010.7 |
| 20260510134221 | 61 | 194 | 0.0 | 3.0 | 0.00 | 0.25 | 0.00 | 95 | 1010.7 |
| 20260510133712 | 60 | 205 | 2.0 | 3.0 | 0.00 | 0.25 | 0.00 | 95 | 1010.7 |
| 20260510133212 | 60 | 180 | 1.0 | 1.0 | 0.00 | 0.25 | 0.00 | 95 | 1010.8 |
| 20260510132712 | 60 | 180 | 0.0 | 1.0 | 0.00 | 0.25 | 0.00 | 95 | 1010.8 |
| 20260510132212 | 60 | 180 | 0.0 | 1.0 | 0.00 | 0.25 | 0.00 | 95 | 1010.8 |
| 20260510131715 | 60 | 180 | 0.0 | 1.0 | 0.00 | 0.25 | 0.00 | 95 | 1010.9 |
| 20260510131212 | 60 | 180 | 0.0 | 1.0 | 0.00 | 0.25 | 0.00 | 95 | 1010.8 |
| 20260510130712 | 60 | 198 | 0.0 | 2.0 | 0.00 | 0.25 | 0.00 | 95 | 1010.8 |
| 20260510130211 | 59 | 199 | 1.0 | 2.0 | 0.00 | 0.25 | 0.00 | 95 | 1010.8 |
| 20260510125718 | 59 | 224 | 0.0 | 1.0 | 0.00 | 0.25 | 0.00 | 95 | 1010.9 |
| 20260510125215 | 60 | 224 | 0.0 | 1.0 | 0.00 | 0.25 | 0.00 | 95 | 1010.9 |
| 20260510124711 | 60 | 224 | 0.0 | 1.0 | 0.00 | 0.25 | 0.00 | 95 | 1011.0 |
| 20260510124211 | 60 | 224 | 1.0 | 2.0 | 0.00 | 0.25 | 0.00 | 95 | 1011.1 |
| 20260510123712 | 60 | 259 | 1.0 | 1.0 | 0.01 | 0.25 | 0.00 | 95 | 1011.1 |
| 20260510123211 | 59 | 269 | 0.0 | 3.0 | 0.03 | 0.25 | 0.00 | 95 | 1011.2 |
| 20260510122718 | 60 | 279 | 1.0 | 2.0 | 0.03 | 0.25 | 0.00 | 95 | 1011.2 |
| 20260510122215 | 59 | 277 | 2.0 | 2.0 | 0.04 | 0.25 | 0.00 | 95 | 1011.2 |
| 20260510121714 | 59 | 265 | 1.0 | 2.0 | 0.05 | 0.25 | 0.00 | 96 | 1011.3 |
| 20260510121215 | 59 | 300 | 0.0 | 3.0 | 0.05 | 0.25 | 0.00 | 95 | 1011.4 |
| 20260510120715 | 59 | 273 | 0.0 | 2.0 | 0.06 | 0.25 | 0.00 | 95 | 1011.5 |
| 20260510120216 | 59 | 269 | 1.0 | 3.0 | 0.08 | 0.25 | 0.00 | 95 | 1011.5 |
| 20260510115711 | 59 | 175 | 1.0 | 1.0 | 0.09 | 0.25 | 0.00 | 95 | 1011.6 |
| 20260510115212 | 59 | 175 | 0.0 | 1.0 | 0.11 | 0.25 | 0.00 | 95 | 1011.7 |
| 20260510114712 | 59 | 175 | 0.0 | 1.0 | 0.11 | 0.25 | 0.00 | 95 | 1011.8 |
| 20260510114215 | 59 | 175 | 0.0 | 2.0 | 0.11 | 0.24 | 0.00 | 95 | 1011.8 |
| 20260510113711 | 59 | 175 | 1.0 | 2.0 | 0.11 | 0.23 | 0.00 | 95 | 1011.8 |
| 20260510113211 | 59 | 175 | 0.0 | 1.0 | 0.09 | 0.22 | 0.00 | 95 | 1011.9 |
| 20260510112721 | 59 | 271 | 1.0 | 2.0 | 0.08 | 0.21 | 0.00 | 95 | 1011.9 |
| 20260510112212 | 59 | 205 | 0.0 | 2.0 | 0.07 | 0.20 | 0.00 | 95 | 1011.9 |
| 20260510111715 | 59 | 257 | 1.0 | 2.0 | 0.07 | 0.19 | 0.00 | 95 | 1011.8 |
| 20260510111212 | 59 | 279 | 1.0 | 2.0 | 0.07 | 0.19 | 0.00 | 95 | 1011.7 |
| 20260510110711 | 59 | 287 | 0.0 | 1.0 | 0.06 | 0.18 | 0.00 | 95 | 1011.6 |
| 20260510110212 | 59 | 309 | 0.0 | 2.0 | 0.03 | 0.16 | 0.00 | 95 | 1011.5 |
| 20260510105711 | 59 | 215 | 0.0 | 1.0 | 0.03 | 0.15 | 0.00 | 94 | 1011.5 |
| 20260510105215 | 59 | 215 | 0.0 | 1.0 | 0.01 | 0.14 | 0.00 | 95 | 1011.6 |
| 20260510104711 | 59 | 215 | 0.0 | 3.0 | 0.01 | 0.13 | 0.00 | 95 | 1011.7 |
| 20260510104221 | 59 | 213 | 0.0 | 2.0 | 0.00 | 0.12 | 0.00 | 95 | 1011.7 |
| 20260510103715 | 59 | 171 | 1.0 | 2.0 | 0.01 | 0.12 | 0.00 | 95 | 1011.7 |
| 20260510103220 | 59 | 135 | 0.0 | 1.0 | 0.02 | 0.12 | 0.00 | 94 | 1011.6 |
| 20260510102712 | 59 | 135 | 0.0 | 1.0 | 0.03 | 0.12 | 0.00 | 95 | 1011.5 |
| 20260510102211 | 59 | 135 | 0.0 | 2.0 | 0.03 | 0.12 | 0.00 | 95 | 1011.6 |
| 20260510101711 | 59 | 153 | 2.0 | 4.0 | 0.04 | 0.12 | 0.00 | 94 | 1011.6 |
| 20260510101214 | 59 | 161 | 1.0 | 4.0 | 0.04 | 0.12 | 0.00 | 95 | 1011.6 |
| 20260510100715 | 59 | 180 | 1.0 | 2.0 | 0.05 | 0.12 | 0.00 | 95 | 1011.6 |
| 20260510100211 | 59 | 241 | 1.0 | 2.0 | 0.05 | 0.12 | 0.00 | 94 | 1011.6 |
| 20260510095712 | 59 | 115 | 0.0 | 3.0 | 0.06 | 0.12 | 0.00 | 94 | 1011.5 |
| 20260510095211 | 59 | 56 | 2.0 | 4.0 | 0.06 | 0.12 | 0.00 | 94 | 1011.5 |
| 20260510094715 | 59 | 225 | 1.0 | 1.0 | 0.06 | 0.11 | 0.00 | 94 | 1011.8 |
| 20260510094212 | 59 | 236 | 0.0 | 3.0 | 0.06 | 0.11 | 0.00 | 94 | 1011.9 |
| 20260510093715 | 59 | 264 | 3.0 | 4.0 | 0.06 | 0.11 | 0.00 | 94 | 1012.0 |
| 20260510093218 | 59 | 264 | 3.0 | 4.0 | 0.06 | 0.10 | 0.00 | 94 | 1011.8 |
| 20260510092711 | 59 | 335 | 2.0 | 3.0 | 0.06 | 0.09 | 0.00 | 94 | 1011.8 |
| 20260510092211 | 59 | 341 | 2.0 | 3.0 | 0.07 | 0.08 | 0.00 | 94 | 1011.8 |
| 20260510091720 | 59 | 88 | 1.0 | 1.0 | 0.07 | 0.07 | 0.00 | 93 | 1011.9 |
| 20260510090752 | 59 | 88 | 1.0 | 2.0 | 0.07 | 0.07 | 0.00 | 93 | 1012.1 |
| 20260510090255 | 59 | 135 | 0.0 | 1.0 | 0.07 | 0.07 | 0.00 | 93 | 1012.1 |
| 20260510085754 | 59 | 134 | 0.0 | 1.0 | 0.06 | 0.06 | 0.00 | 93 | 1012.2 |
| 20260510085300 | 59 | 135 | 0.0 | 2.0 | 0.06 | 0.06 | 0.00 | 93 | 1012.2 |
| 20260510084751 | 59 | 137 | 0.0 | 2.0 | 0.05 | 0.05 | 0.00 | 92 | 1012.1 |
| 20260510084251 | 59 | 180 | 2.0 | 3.0 | 0.05 | 0.05 | 0.00 | 92 | 1012.2 |
| 20260510083757 | 59 | 199 | 2.0 | 3.0 | 0.04 | 0.04 | 0.00 | 92 | 1012.2 |
| 20260510083254 | 59 | 206 | 1.0 | 8.0 | 0.03 | 0.03 | 0.00 | 91 | 1012.2 |
| 20260510082757 | 60 | 186 | 2.0 | 3.0 | 0.03 | 0.03 | 0.00 | 91 | 1012.2 |
| 20260510082254 | 60 | 209 | 1.0 | 4.0 | 0.01 | 0.01 | 0.00 | 91 | 1012.2 |
| 20260510081754 | 60 | 201 | 0.0 | 1.0 | 0.00 | 0.00 | 0.00 | 91 | 1012.2 |
| 20260510081255 | 60 | 171 | 1.0 | 2.0 | 0.00 | 0.00 | 0.00 | 91 | 1012.1 |
| 20260510080754 | 60 | 213 | 0.0 | 3.0 | 0.00 | 0.00 | 0.00 | 90 | 1012.0 |
| 20260510080251 | 60 | 225 | 2.0 | 2.0 | 0.00 | 0.00 | 0.00 | 91 | 1011.9 |
| 20260510075752 | 60 | 250 | 0.0 | 5.0 | 0.00 | 0.00 | 0.00 | 91 | 1011.9 |
| 20260510075300 | 60 | 184 | 1.0 | 3.0 | 0.00 | 0.00 | 0.00 | 91 | 1012.0 |
| 20260510074754 | 60 | 146 | 1.0 | 4.0 | 0.00 | 0.00 | 0.00 | 92 | 1011.9 |
| 20260510074251 | 61 | 190 | 1.0 | 2.0 | 0.00 | 0.00 | 0.00 | 93 | 1011.9 |
| 20260510073754 | 60 | 215 | 1.0 | 3.0 | 0.00 | 0.00 | 0.00 | 92 | 1011.9 |
| 20260510073251 | 60 | 281 | 0.0 | 1.0 | 0.00 | 0.00 | 0.00 | 93 | 1012.0 |
| 20260510072754 | 60 | 281 | 0.0 | 3.0 | 0.00 | 0.00 | 0.00 | 93 | 1011.9 |
| 20260510072251 | 60 | 286 | 2.0 | 3.0 | 0.00 | 0.00 | 0.00 | 93 | 1011.8 |
| 20260510071754 | 60 | 234 | 0.0 | 0.0 | 0.00 | 0.00 | 0.00 | 93 | 1011.8 |
| 20260510071251 | 59 | 234 | 0.0 | 0.0 | 0.00 | 0.00 | 0.00 | 93 | 1011.7 |
| 20260510070751 | 59 | 234 | 0.0 | 1.0 | 0.00 | 0.00 | 0.00 | 93 | 1011.8 |
| 20260510070254 | 59 | 234 | 0.0 | 1.0 | 0.00 | 0.00 | 0.00 | 93 | 1011.8 |
| 20260510065751 | 59 | 146 | 0.0 | 1.0 | 0.00 | 0.00 | 0.00 | 94 | 1011.9 |
| 20260510065251 | 59 | 122 | 2.0 | 2.0 | 0.00 | 0.00 | 0.00 | 94 | 1011.9 |
| 20260510064752 | 59 | 47 | 0.0 | 1.0 | 0.00 | 0.00 | 0.00 | 94 | 1011.9 |
| 20260510064251 | 59 | 47 | 0.0 | 1.0 | 0.00 | 0.00 | 0.00 | 94 | 1011.9 |
| 20260510063754 | 59 | 194 | 0.0 | 1.0 | 0.00 | 0.00 | 0.00 | 94 | 1012.0 |
| 20260510063300 | 59 | 230 | 0.0 | 2.0 | 0.00 | 0.00 | 0.00 | 94 | 1012.1 |
| 20260510062752 | 59 | 230 | 0.0 | 2.0 | 0.00 | 0.00 | 0.00 | 94 | 1012.1 |
| 20260510062251 | 59 | 230 | 1.0 | 1.0 | 0.00 | 0.00 | 0.00 | 94 | 1012.1 |
| 20260510061751 | 59 | 228 | 0.0 | 1.0 | 0.00 | 0.00 | 0.00 | 94 | 1012.1 |
| 20260510061300 | 59 | 205 | 0.0 | 3.0 | 0.00 | 0.00 | 0.00 | 94 | 1012.0 |
| 20260510060751 | 59 | 250 | 1.0 | 2.0 | 0.00 | 0.00 | 0.00 | 94 | 1011.9 |
| 20260510060254 | 59 | 250 | 1.0 | 2.0 | 0.00 | 0.00 | 0.00 | 94 | 1011.9 |
| 20260510055800 | 59 | 250 | 0.0 | 3.0 | 0.00 | 0.00 | 0.00 | 94 | 1011.8 |
| 20260510055252 | 59 | 281 | 1.0 | 3.0 | 0.00 | 0.00 | 0.00 | 94 | 1011.9 |
| 20260510054754 | 58 | 101 | 0.0 | 1.0 | 0.00 | 0.00 | 0.00 | 94 | 1011.9 |
| 20260510054256 | 58 | 101 | 0.0 | 0.0 | 0.00 | 0.00 | 0.00 | 94 | 1011.9 |
| 20260510053751 | 58 | 101 | 0.0 | 1.0 | 0.00 | 0.00 | 0.00 | 94 | 1012.0 |
| 20260510053253 | 58 | 101 | 1.0 | 3.0 | 0.00 | 0.00 | 0.00 | 94 | 1012.1 |
| 20260510052757 | 58 | 55 | 1.0 | 1.0 | 0.00 | 0.00 | 0.00 | 94 | 1012.1 |
| 20260510052257 | 58 | 55 | 0.0 | 1.0 | 0.00 | 0.00 | 0.00 | 93 | 1012.1 |
| 20260510051751 | 58 | 55 | 0.0 | 0.0 | 0.00 | 0.00 | 0.00 | 93 | 1012.1 |
| 20260510051251 | 58 | 55 | 0.0 | 1.0 | 0.00 | 0.00 | 0.00 | 93 | 1011.9 |
| 20260510050754 | 58 | 55 | 1.0 | 1.0 | 0.00 | 0.00 | 0.00 | 93 | 1012.0 |
| 20260510050251 | 58 | 55 | 0.0 | 2.0 | 0.00 | 0.00 | 0.00 | 93 | 1012.0 |
| 20260510045754 | 58 | 28 | 0.0 | 2.0 | 0.00 | 0.00 | 0.00 | 93 | 1011.9 |
| 20260510045251 | 58 | 28 | 1.0 | 3.0 | 0.00 | 0.00 | 0.00 | 93 | 1012.0 |
| 20260510044757 | 58 | 47 | 2.0 | 5.0 | 0.00 | 0.00 | 0.00 | 93 | 1011.9 |
| 20260510044251 | 58 | 22 | 3.0 | 4.0 | 0.00 | 0.00 | 0.00 | 93 | 1012.1 |
| 20260510043752 | 58 | 71 | 3.0 | 3.0 | 0.00 | 0.00 | 0.00 | 93 | 1012.3 |
| 20260510043251 | 57 | 49 | 0.0 | 4.0 | 0.00 | 0.00 | 0.00 | 93 | 1012.4 |
| 20260510042754 | 57 | 139 | 1.0 | 5.0 | 0.00 | 0.00 | 0.00 | 92 | 1012.5 |
| 20260510042252 | 57 | 112 | 2.0 | 3.0 | 0.00 | 0.00 | 0.00 | 92 | 1012.4 |
| 20260510041751 | 57 | 200 | 0.0 | 4.0 | 0.00 | 0.00 | 0.00 | 92 | 1012.3 |
| 20260510041254 | 58 | 276 | 3.0 | 4.0 | 0.00 | 0.00 | 0.00 | 92 | 1012.2 |
| 20260510040754 | 57 | 128 | 3.0 | 5.0 | 0.00 | 0.00 | 0.00 | 92 | 1012.0 |
| 20260510040251 | 57 | 140 | 4.0 | 8.0 | 0.00 | 0.00 | 0.00 | 91 | 1012.2 |
| 20260510035755 | 57 | 123 | 5.0 | 7.0 | 0.00 | 0.00 | 0.00 | 90 | 1012.2 |
| 20260510035251 | 58 | 142 | 0.0 | 3.0 | 0.00 | 0.00 | 0.00 | 91 | 1012.1 |
| 20260510034757 | 58 | 105 | 1.0 | 2.0 | 0.00 | 0.00 | 0.00 | 90 | 1012.0 |
| 20260510034251 | 58 | 245 | 0.0 | 3.0 | 0.00 | 0.00 | 0.00 | 90 | 1011.9 |
| 20260510033756 | 59 | 277 | 3.0 | 4.0 | 0.00 | 0.00 | 0.00 | 91 | 1011.9 |
| 20260510033251 | 58 | 107 | 3.0 | 8.0 | 0.00 | 0.00 | 0.00 | 92 | 1011.9 |
| 20260510032751 | 57 | 109 | 3.0 | 6.0 | 0.00 | 0.00 | 0.00 | 92 | 1012.0 |
| 20260510032253 | 57 | 111 | 3.0 | 5.0 | 0.00 | 0.00 | 0.00 | 91 | 1012.3 |
| 20260510031754 | 58 | 150 | 1.0 | 3.0 | 0.00 | 0.00 | 0.00 | 91 | 1012.3 |
| 20260510031253 | 58 | 267 | 0.0 | 3.0 | 0.00 | 0.00 | 0.00 | 92 | 1012.0 |
| 20260510030751 | 58 | 132 | 0.0 | 1.0 | 0.00 | 0.00 | 0.00 | 92 | 1012.0 |
| 20260510030251 | 57 | 132 | 1.0 | 2.0 | 0.00 | 0.00 | 0.00 | 92 | 1012.2 |
| 20260510025757 | 57 | 132 | 2.0 | 2.0 | 0.00 | 0.00 | 0.00 | 92 | 1012.4 |
| 20260510025251 | 57 | 132 | 0.0 | 1.0 | 0.00 | 0.00 | 0.00 | 92 | 1012.5 |
| 20260510024757 | 57 | 132 | 1.0 | 2.0 | 0.00 | 0.00 | 0.00 | 91 | 1012.5 |
| 20260510024251 | 58 | 132 | 2.0 | 2.0 | 0.00 | 0.00 | 0.00 | 90 | 1012.7 |
| 20260510023751 | 58 | 233 | 0.0 | 1.0 | 0.00 | 0.00 | 0.00 | 90 | 1012.8 |
| 20260510023254 | 58 | 233 | 0.0 | 3.0 | 0.00 | 0.00 | 0.00 | 91 | 1012.8 |
| 20260510022754 | 58 | 140 | 0.0 | 2.0 | 0.00 | 0.00 | 0.00 | 91 | 1012.8 |
| 20260510022255 | 58 | 139 | 0.0 | 3.0 | 0.00 | 0.00 | 0.00 | 92 | 1013.0 |
| 20260510021751 | 58 | 112 | 2.0 | 3.0 | 0.00 | 0.00 | 0.00 | 91 | 1013.1 |
| 20260510021252 | 58 | 33 | 0.0 | 3.0 | 0.00 | 0.00 | 0.00 | 92 | 1013.2 |
| 20260510020752 | 57 | 60 | 1.0 | 3.0 | 0.00 | 0.00 | 0.00 | 91 | 1013.2 |
| 20260510020254 | 57 | 120 | 1.0 | 2.0 | 0.00 | 0.00 | 0.00 | 91 | 1013.3 |
| 20260510015752 | 57 | 120 | 1.0 | 2.0 | 0.00 | 0.00 | 0.00 | 91 | 1013.4 |
| 20260510015257 | 57 | 120 | 0.0 | 3.0 | 0.00 | 0.00 | 0.00 | 91 | 1013.4 |
| 20260510014757 | 58 | 120 | 0.0 | 1.0 | 0.00 | 0.00 | 0.00 | 91 | 1013.4 |
| 20260510014253 | 58 | 120 | 0.0 | 1.0 | 0.00 | 0.00 | 0.00 | 91 | 1013.5 |
| 20260510013758 | 58 | 120 | 1.0 | 1.0 | 0.00 | 0.00 | 0.00 | 91 | 1013.4 |
| 20260510013254 | 58 | 120 | 0.0 | 3.0 | 0.00 | 0.00 | 0.00 | 92 | 1013.4 |
| 20260510012758 | 57 | 120 | 2.0 | 3.0 | 0.00 | 0.00 | 0.00 | 92 | 1013.4 |
| 20260510012257 | 57 | 195 | 1.0 | 1.0 | 0.00 | 0.00 | 0.00 | 91 | 1013.5 |
| 20260510011754 | 57 | 237 | 0.0 | 2.0 | 0.00 | 0.00 | 0.00 | 91 | 1013.5 |
| 20260510011300 | 58 | 236 | 2.0 | 4.0 | 0.00 | 0.00 | 0.00 | 92 | 1013.5 |
| 20260510010751 | 57 | 130 | 1.0 | 4.0 | 0.00 | 0.00 | 0.00 | 91 | 1013.5 |
| 20260510010254 | 57 | 121 | 2.0 | 5.0 | 0.00 | 0.00 | 0.00 | 91 | 1013.5 |
| 20260510005757 | 58 | 205 | 0.0 | 2.0 | 0.00 | 0.00 | 0.00 | 91 | 1013.5 |
| 20260510005254 | 57 | 63 | 1.0 | 2.0 | 0.00 | 0.00 | 0.00 | 91 | 1013.4 |
| 20260510004751 | 57 | 132 | 2.0 | 3.0 | 0.00 | 0.00 | 0.00 | 90 | 1013.4 |
| 20260510004251 | 58 | 167 | 3.0 | 3.0 | 0.00 | 0.00 | 0.00 | 90 | 1013.5 |
| 20260510003754 | 58 | 167 | 3.0 | 3.0 | 0.00 | 0.00 | 0.00 | 90 | 1013.5 |
| 20260510003254 | 58 | 180 | 0.0 | 1.0 | 0.00 | 0.00 | 0.00 | 91 | 1013.5 |
| 20260510002754 | 58 | 70 | 0.0 | 2.0 | 0.00 | 0.00 | 0.00 | 91 | 1013.5 |
| 20260510002258 | 58 | 70 | 0.0 | 0.0 | 0.00 | 0.00 | 0.00 | 91 | 1013.6 |
| 20260510001754 | 58 | 70 | 0.0 | 2.0 | 0.00 | 0.00 | 0.00 | 91 | 1013.7 |
| 20260510001253 | 58 | 101 | 2.0 | 2.0 | 0.00 | 0.00 | 0.00 | 90 | 1013.8 |
| 20260510000751 | 58 | 118 | 1.0 | 2.0 | 0.00 | 0.00 | 0.00 | 90 | 1013.8 |
| 20260510000251 | 58 | 118 | 1.0 | 1.0 | 0.00 | 0.00 | 0.00 | 90 | 1014.0 |
| 20260509235752 | 58 | 118 | 0.0 | 1.0 | 0.00 | 0.00 | 0.00 | 90 | 1014.0 |
| 20260509235254 | 59 | 118 | 0.0 | 2.0 | 0.00 | 0.00 | 0.00 | 90 | 1014.2 |
| 20260509234751 | 59 | 118 | 2.0 | 2.0 | 0.00 | 0.00 | 0.00 | 90 | 1014.1 |
| 20260509234251 | 59 | 118 | 0.0 | 1.0 | 0.00 | 0.00 | 0.00 | 90 | 1014.1 |
| 20260509233751 | 59 | 118 | 1.0 | 3.0 | 0.00 | 0.00 | 0.00 | 90 | 1014.1 |
| 20260509233251 | 59 | 118 | 2.0 | 3.0 | 0.00 | 0.00 | 0.00 | 89 | 1014.0 |
| 20260509232755 | 59 | 118 | 0.0 | 1.0 | 0.00 | 0.00 | 0.00 | 89 | 1014.0 |
| 20260509232254 | 59 | 118 | 1.0 | 2.0 | 0.00 | 0.00 | 0.00 | 89 | 1014.1 |
| 20260509231751 | 59 | 118 | 0.0 | 1.0 | 0.00 | 0.00 | 0.00 | 89 | 1014.1 |
| 20260509231254 | 59 | 118 | 1.0 | 2.0 | 0.00 | 0.00 | 0.00 | 89 | 1014.1 |
| 20260509230755 | 59 | 118 | 1.0 | 2.0 | 0.00 | 0.00 | 0.00 | 88 | 1014.1 |
| 20260509230254 | 59 | 118 | 1.0 | 2.0 | 0.00 | 0.00 | 0.00 | 88 | 1014.1 |
| 20260509225754 | 59 | 118 | 1.0 | 2.0 | 0.00 | 0.00 | 0.00 | 88 | 1014.0 |
| 20260509225251 | 59 | 118 | 0.0 | 1.0 | 0.00 | 0.00 | 0.00 | 88 | 1014.1 |
| 20260509224751 | 59 | 118 | 0.0 | 2.0 | 0.00 | 0.00 | 0.00 | 88 | 1014.0 |
| 20260509224254 | 59 | 118 | 1.0 | 3.0 | 0.00 | 0.00 | 0.00 | 88 | 1014.0 |
| 20260509223751 | 59 | 118 | 2.0 | 3.0 | 0.00 | 0.00 | 0.00 | 88 | 1014.0 |
| 20260509223251 | 59 | 140 | 1.0 | 2.0 | 0.00 | 0.00 | 0.00 | 87 | 1014.0 |
| 20260509222754 | 60 | 140 | 0.0 | 3.0 | 0.00 | 0.00 | 0.00 | 87 | 1014.0 |
| 20260509222254 | 60 | 140 | 0.0 | 1.0 | 0.00 | 0.00 | 0.00 | 86 | 1013.9 |
| 20260509221754 | 60 | 140 | 0.0 | 2.0 | 0.00 | 0.00 | 0.00 | 86 | 1013.9 |
| 20260509221251 | 60 | 78 | 2.0 | 4.0 | 0.00 | 0.00 | 0.00 | 87 | 1013.9 |
| 20260509220756 | 60 | 113 | 2.0 | 2.0 | 0.00 | 0.00 | 0.00 | 87 | 1013.9 |
| 20260509220256 | 60 | 113 | 0.0 | 1.0 | 0.00 | 0.00 | 0.00 | 86 | 1014.1 |
| 20260509215752 | 60 | 113 | 0.0 | 2.0 | 0.00 | 0.00 | 0.00 | 86 | 1014.0 |
| 20260509215254 | 60 | 113 | 2.0 | 2.0 | 0.00 | 0.00 | 0.00 | 86 | 1013.9 |
| 20260509214754 | 60 | 113 | 0.0 | 1.0 | 0.00 | 0.00 | 0.00 | 87 | 1013.9 |
| 20260509214251 | 60 | 113 | 0.0 | 2.0 | 0.00 | 0.00 | 0.00 | 86 | 1013.9 |